Kingsville NAS, TX

1:04 PM CST on November 14, 2019 (GMT -0600)
Kingsville Naval Air Station

Weather History for KNQI - August, 2019

Change the Weather History Date:

Saturday, August 24, 2019

  Actual Average Record
Temperature  
Mean Temperature 90 °F -  
Max Temperature 100 °F 92 °F 106 °F (2010)
Min Temperature 80 °F 72 °F 73 °F (2007)
Cooling Degree Days 24    
Growing Degree Days 40 (Base 50)    
Moisture  
Dew Point 76 °F    
Average Humidity 73    
Maximum Humidity 91    
Minimum Humidity 40    
Precipitation  
Precipitation 0.00 in - - ()
Sea Level Pressure  
Sea Level Pressure 29.86 in    
Wind  
Wind Speed 7 mph (ESE)    
Max Wind Speed 24 mph    
Max Gust Speed 34 mph    
Visibility 9 miles    
Events Rain , Thunderstorm    
Averages and records for this station are not official NWS values.
T = Trace of Precipitation, MM = Missing Value Source: NWS Daily Summary

Daily Weather History Graph

Daily Weather History Graph

Search for Another Location

Airport or City:

Astronomy

Aug. 24, 2019 Rise Set
Actual Time 7:06 AM CDT 8:00 PM CDT
Civil Twilight 6:42 AM CDT 8:24 PM CDT
Nautical Twilight 6:13 AM CDT 8:52 PM CDT
Astronomical Twilight 5:44 AM CDT 9:21 PM CDT
Moon 1:11 AM CDT (8/24) 3:03 PM CDT (8/24)
Length of Visible Light 13h 42m
Length of Day
12h 54m
Last Quarter, 39% of the Moon is Illuminated
Aug 24
Last Quarter
Aug 30
New
Sep 5
First Quarter
Sep 13
Full
Sep 21
Last Quarter

Hourly Weather History & Observations

Time (CDT) Temp. Heat Index Dew Point Humidity Pressure Visibility Wind Dir Wind Speed Gust Speed Precip Events Conditions
12:56 AM 82.0 °F 90.2 °F 77.0 °F 85% 29.87 in 10.0 mi SSE 6.9 mph - N/A   Clear
2:56 AM 81.0 °F 87.3 °F 75.9 °F 85% 29.87 in 9.0 mi SSE 4.6 mph - N/A   Clear
3:56 AM 80.1 °F 85.4 °F 75.9 °F 87% 29.86 in 9.0 mi East 4.6 mph - N/A   Clear
4:19 AM 81.0 °F 87.3 °F 75.9 °F 85% 29.87 in 9.0 mi ENE 3.5 mph - N/A   Mostly Cloudy
4:52 AM 80.6 °F 86.2 °F 75.2 °F 84% 29.87 in 9.0 mi ENE 3.5 mph - N/A   Partly Cloudy
4:56 AM 80.1 °F 85.4 °F 75.9 °F 87% 29.86 in 9.0 mi NE 3.5 mph - N/A   Partly Cloudy
5:56 AM 80.1 °F 85.4 °F 75.9 °F 87% 29.86 in 9.0 mi East 4.6 mph - N/A   Clear
6:56 AM 80.1 °F 85.4 °F 75.9 °F 87% 29.86 in 7.0 mi East 4.6 mph - N/A   Clear
7:56 AM 81.0 °F 87.9 °F 77.0 °F 88% 29.87 in 6.0 mi East 4.6 mph - N/A   Clear
8:56 AM 84.0 °F 96.0 °F 79.0 °F 85% 29.88 in 7.0 mi ESE 5.8 mph - N/A   Clear
9:56 AM 88.0 °F 103.1 °F 79.0 °F 75% 29.89 in 8.0 mi Calm Calm - N/A   Scattered Clouds
10:42 AM 90.0 °F 101.3 °F 75.9 °F 63% 29.89 in 10.0 mi Variable 4.6 mph - N/A   Mostly Cloudy
10:56 AM 90.0 °F 101.3 °F 75.9 °F 63% 29.88 in 10.0 mi WNW 4.6 mph - N/A   Overcast
11:19 AM 93.0 °F 105.3 °F 75.9 °F 57% 29.89 in 10.0 mi SSE 9.2 mph - N/A   Mostly Cloudy
11:56 AM 93.9 °F 105.4 °F 75.0 °F 54% 29.87 in 10.0 mi SSW 4.6 mph - N/A   Partly Cloudy
12:56 PM 97.0 °F 107.0 °F 73.0 °F 46% 29.86 in 10.0 mi Calm Calm - N/A   Mostly Cloudy
1:56 PM 99.0 °F 107.0 °F 71.1 °F 40% 29.84 in 10.0 mi SSE 6.9 mph - N/A   Mostly Cloudy
2:51 PM 96.8 °F 103.1 °F 69.8 °F 41% 29.84 in 10.0 mi East 21.9 mph 28.8 mph N/A Thunderstorm Thunderstorm
2:56 PM 95.0 °F 102.5 °F 71.1 °F 46% 29.83 in 10.0 mi East 24.2 mph 34.5 mph N/A Thunderstorm Thunderstorm
3:27 PM 89.1 °F 97.0 °F 73.0 °F 59% 29.83 in 10.0 mi ESE 15.0 mph 29.9 mph N/A   Partly Cloudy
3:56 PM 90.0 °F 100.2 °F 75.0 °F 61% 29.81 in 10.0 mi East 13.8 mph - N/A   Clear
4:56 PM 91.0 °F 104.2 °F 77.0 °F 63% 29.78 in 10.0 mi ESE 18.4 mph 25.3 mph N/A   Clear
5:56 PM 89.1 °F 103.2 °F 78.1 °F 70% 29.82 in 9.0 mi ESE 12.7 mph - N/A   Clear
6:56 PM 86.0 °F 99.3 °F 79.0 °F 79% 29.82 in 8.0 mi ESE 12.7 mph 20.7 mph N/A   Scattered Clouds
7:56 PM 84.0 °F 96.0 °F 79.0 °F 85% 29.81 in 9.0 mi ESE 8.1 mph - 0.00 in Rain Light Rain
8:56 PM 84.0 °F 96.0 °F 79.0 °F 85% 29.85 in 9.0 mi SSE 9.2 mph - 0.00 in Rain Light Rain
9:56 PM 84.0 °F 97.3 °F 80.1 °F 88% 29.89 in 9.0 mi SSE 8.1 mph - 0.00 in   Clear
10:56 PM 82.9 °F 94.8 °F 80.1 °F 91% 29.89 in 9.0 mi ESE 5.8 mph - N/A   Clear
11:56 PM 82.9 °F 93.8 °F 79.0 °F 88% 29.88 in 10.0 mi East 6.9 mph - N/A   Clear